Year,Month,Day,Hour,Minute,Value (Times are PST for temperature in C)
2012,07,08,00,00,15.80
2012,07,08,00,01,15.80
2012,07,08,00,02,15.70
2012,07,08,00,03,15.70
2012,07,08,00,04,15.70
2012,07,08,00,05,15.70
2012,07,08,00,06,15.70
2012,07,08,00,07,15.70
2012,07,08,00,08,15.70
2012,07,08,00,09,15.70
2012,07,08,00,10,15.70
2012,07,08,00,11,15.70
2012,07,08,00,12,15.70
2012,07,08,00,13,15.70
2012,07,08,00,14,15.60
2012,07,08,00,15,15.60
2012,07,08,00,16,15.60
2012,07,08,00,17,15.60
2012,07,08,00,18,15.60
2012,07,08,00,19,15.60
2012,07,08,00,20,15.60
2012,07,08,00,21,15.60
2012,07,08,00,22,15.60
2012,07,08,00,23,15.60
2012,07,08,00,24,15.60
2012,07,08,00,25,15.60
2012,07,08,00,26,15.60
2012,07,08,00,27,15.60
2012,07,08,00,28,15.60
2012,07,08,00,29,15.60
2012,07,08,00,30,15.60
2012,07,08,00,31,15.60
2012,07,08,00,32,15.60
2012,07,08,00,33,15.60
2012,07,08,00,34,15.60
2012,07,08,00,35,15.60
2012,07,08,00,36,15.60
2012,07,08,00,37,15.50
2012,07,08,00,38,15.50
2012,07,08,00,39,15.50
2012,07,08,00,40,15.40
2012,07,08,00,41,15.40
2012,07,08,00,42,15.40
2012,07,08,00,43,15.40
2012,07,08,00,44,15.40
2012,07,08,00,45,15.30
2012,07,08,00,46,15.30
2012,07,08,00,47,15.30
2012,07,08,00,48,15.30
2012,07,08,00,49,15.30
2012,07,08,00,50,15.20
2012,07,08,00,51,15.20
2012,07,08,00,52,15.20
2012,07,08,00,53,15.20
2012,07,08,00,54,15.10
2012,07,08,00,55,15.10
2012,07,08,00,56,15.00
2012,07,08,00,57,15.00
2012,07,08,00,58,15.00
2012,07,08,00,59,15.00
2012,07,08,01,00,15.00
2012,07,08,01,01,15.00
2012,07,08,01,02,15.00
2012,07,08,01,03,15.00
2012,07,08,01,04,15.00
2012,07,08,01,05,15.00
2012,07,08,01,06,15.00
2012,07,08,01,07,15.00
2012,07,08,01,08,15.00
2012,07,08,01,09,15.00
2012,07,08,01,10,15.00
2012,07,08,01,11,15.00
2012,07,08,01,12,15.00
2012,07,08,01,13,15.00
2012,07,08,01,14,15.00
2012,07,08,01,15,15.00
2012,07,08,01,16,15.00
2012,07,08,01,17,15.00
2012,07,08,01,18,15.00
2012,07,08,01,19,15.00
2012,07,08,01,20,15.00
2012,07,08,01,21,15.00
2012,07,08,01,22,15.00
2012,07,08,01,23,15.00
2012,07,08,01,24,14.90
2012,07,08,01,25,14.90
2012,07,08,01,26,14.90
2012,07,08,01,27,14.90
2012,07,08,01,28,14.90
2012,07,08,01,29,14.90
2012,07,08,01,30,14.80
2012,07,08,01,31,14.80
2012,07,08,01,32,14.80
2012,07,08,01,33,14.80
2012,07,08,01,34,14.80
2012,07,08,01,35,14.80
2012,07,08,01,36,14.80
2012,07,08,01,37,14.80
2012,07,08,01,38,14.70
2012,07,08,01,39,14.70
2012,07,08,01,40,14.70
2012,07,08,01,41,14.70
2012,07,08,01,42,14.70
2012,07,08,01,43,14.70
2012,07,08,01,44,14.70
2012,07,08,01,45,14.70
2012,07,08,01,46,14.60
2012,07,08,01,47,14.60
2012,07,08,01,48,14.60
2012,07,08,01,49,14.60
2012,07,08,01,50,14.60
2012,07,08,01,51,14.50
2012,07,08,01,52,14.50
2012,07,08,01,53,14.50
2012,07,08,01,54,14.50
2012,07,08,01,55,14.40
2012,07,08,01,56,14.40
2012,07,08,01,57,14.40
2012,07,08,01,58,14.40
2012,07,08,01,59,14.40
2012,07,08,02,00,14.40
2012,07,08,02,01,14.40
2012,07,08,02,02,14.30
2012,07,08,02,03,14.30
2012,07,08,02,04,14.30
2012,07,08,02,05,14.30
2012,07,08,02,06,14.30
2012,07,08,02,07,14.30
2012,07,08,02,08,14.40
2012,07,08,02,09,14.40
2012,07,08,02,10,14.40
2012,07,08,02,11,14.40
2012,07,08,02,12,14.40
2012,07,08,02,13,14.40
2012,07,08,02,14,14.40
2012,07,08,02,15,14.40
2012,07,08,02,16,14.40
2012,07,08,02,17,14.40
2012,07,08,02,18,14.40
2012,07,08,02,19,14.40
2012,07,08,02,20,14.40
2012,07,08,02,21,14.30
2012,07,08,02,22,14.30
2012,07,08,02,23,14.30
2012,07,08,02,24,14.30
2012,07,08,02,25,14.30
2012,07,08,02,26,14.30
2012,07,08,02,27,14.30
2012,07,08,02,28,14.30
2012,07,08,02,29,14.30
2012,07,08,02,30,14.40
2012,07,08,02,31,14.50
2012,07,08,02,32,14.50
2012,07,08,02,33,14.60
2012,07,08,02,34,14.70
2012,07,08,02,35,14.80
2012,07,08,02,36,15.00
2012,07,08,02,37,15.00
2012,07,08,02,38,15.00
2012,07,08,02,39,15.20
2012,07,08,02,40,15.30
2012,07,08,02,41,15.40
2012,07,08,02,42,15.50
2012,07,08,02,43,15.60
2012,07,08,02,44,15.60
2012,07,08,02,45,15.70
2012,07,08,02,46,15.80
2012,07,08,02,47,15.90
2012,07,08,02,48,15.90
2012,07,08,02,49,16.00
2012,07,08,02,50,16.00
2012,07,08,02,51,16.10
2012,07,08,02,52,16.20
2012,07,08,02,53,16.30
2012,07,08,02,54,16.30
2012,07,08,02,55,16.40
2012,07,08,02,56,16.40
2012,07,08,02,57,16.50
2012,07,08,02,58,16.50
2012,07,08,02,59,16.60
2012,07,08,03,00,16.60
2012,07,08,03,01,16.70
2012,07,08,03,02,16.70
2012,07,08,03,03,16.80
2012,07,08,03,04,16.80
2012,07,08,03,05,16.90
2012,07,08,03,06,16.90
2012,07,08,03,07,16.90
2012,07,08,03,08,16.90
2012,07,08,03,09,16.90
2012,07,08,03,10,16.90
2012,07,08,03,11,16.90
2012,07,08,03,12,16.90
2012,07,08,03,13,16.90
2012,07,08,03,14,16.90
2012,07,08,03,15,16.80
2012,07,08,03,16,16.70
2012,07,08,03,17,16.70
2012,07,08,03,18,16.60
2012,07,08,03,19,16.50
2012,07,08,03,20,16.40
2012,07,08,03,21,16.30
2012,07,08,03,22,16.10
2012,07,08,03,23,16.00
2012,07,08,03,24,15.90
2012,07,08,03,25,15.90
2012,07,08,03,26,15.80
2012,07,08,03,27,15.70
2012,07,08,03,28,15.70
2012,07,08,03,29,15.60
2012,07,08,03,30,15.50
2012,07,08,03,31,15.50
2012,07,08,03,32,15.40
2012,07,08,03,33,15.40
2012,07,08,03,34,15.30
2012,07,08,03,35,15.30
2012,07,08,03,36,15.20
2012,07,08,03,37,15.20
2012,07,08,03,38,15.10
2012,07,08,03,39,15.00
2012,07,08,03,40,15.00
2012,07,08,03,41,15.00
2012,07,08,03,42,15.00
2012,07,08,03,43,15.00
2012,07,08,03,44,15.00
2012,07,08,03,45,15.00
2012,07,08,03,46,15.00
2012,07,08,03,47,15.00
2012,07,08,03,48,14.90
2012,07,08,03,49,14.90
2012,07,08,03,50,14.80
2012,07,08,03,51,14.80
2012,07,08,03,52,14.70
2012,07,08,03,53,14.70
2012,07,08,03,54,14.70
2012,07,08,03,55,14.60
2012,07,08,03,56,14.60
2012,07,08,03,57,14.60
2012,07,08,03,58,14.60
2012,07,08,03,59,14.50
2012,07,08,04,00,14.50
2012,07,08,04,01,14.40
2012,07,08,04,02,14.40
2012,07,08,04,03,14.40
2012,07,08,04,04,14.40
2012,07,08,04,05,14.40
2012,07,08,04,06,14.30
2012,07,08,04,07,14.30
2012,07,08,04,08,14.30
2012,07,08,04,09,14.30
2012,07,08,04,10,14.30
2012,07,08,04,11,14.30
2012,07,08,04,12,14.30
2012,07,08,04,13,14.30
2012,07,08,04,14,14.30
2012,07,08,04,15,14.30
2012,07,08,04,16,14.30
2012,07,08,04,17,14.20
2012,07,08,04,18,14.20
2012,07,08,04,19,14.20
2012,07,08,04,20,14.20
2012,07,08,04,21,14.20
2012,07,08,04,22,14.20
2012,07,08,04,23,14.20
2012,07,08,04,24,14.10
2012,07,08,04,25,14.10
2012,07,08,04,26,14.10
2012,07,08,04,27,14.10
2012,07,08,04,28,14.10
2012,07,08,04,29,14.10
2012,07,08,04,30,14.10
2012,07,08,04,31,14.00
2012,07,08,04,32,14.00
2012,07,08,04,33,14.00
2012,07,08,04,34,13.90
2012,07,08,04,35,13.90
2012,07,08,04,36,13.90
2012,07,08,04,37,13.90
2012,07,08,04,38,13.90
2012,07,08,04,39,13.90
2012,07,08,04,40,13.80
2012,07,08,04,41,13.80
2012,07,08,04,42,13.80
2012,07,08,04,43,13.80
2012,07,08,04,44,13.80
2012,07,08,04,45,13.80
2012,07,08,04,46,13.80
2012,07,08,04,47,13.80
2012,07,08,04,48,13.80
2012,07,08,04,49,13.80
2012,07,08,04,50,13.70
2012,07,08,04,51,13.70
2012,07,08,04,52,13.70
2012,07,08,04,53,13.70
2012,07,08,04,54,13.70
2012,07,08,04,55,13.70
2012,07,08,04,56,13.70
2012,07,08,04,57,13.60
2012,07,08,04,58,13.60
2012,07,08,04,59,13.60
2012,07,08,05,00,13.60
2012,07,08,05,01,13.60
2012,07,08,05,02,13.60
2012,07,08,05,03,13.60
2012,07,08,05,04,13.60
2012,07,08,05,05,13.60
2012,07,08,05,06,13.60
2012,07,08,05,07,13.60
2012,07,08,05,08,13.60
2012,07,08,05,09,13.60
2012,07,08,05,10,13.50
2012,07,08,05,11,13.50
2012,07,08,05,12,13.50
2012,07,08,05,13,13.50
2012,07,08,05,14,13.50
2012,07,08,05,15,13.50
2012,07,08,05,16,13.50
2012,07,08,05,17,13.50
2012,07,08,05,18,13.50
2012,07,08,05,19,13.40
2012,07,08,05,20,13.40
2012,07,08,05,21,13.40
2012,07,08,05,22,13.40
2012,07,08,05,23,13.40
2012,07,08,05,24,13.40
2012,07,08,05,25,13.30
2012,07,08,05,26,13.40
2012,07,08,05,27,13.40
2012,07,08,05,28,13.30
2012,07,08,05,29,13.30
2012,07,08,05,30,13.30
2012,07,08,05,31,13.30
2012,07,08,05,32,13.30
2012,07,08,05,33,13.30
2012,07,08,05,34,13.30
2012,07,08,05,35,13.30
2012,07,08,05,36,13.30
2012,07,08,05,37,13.30
2012,07,08,05,38,13.30
2012,07,08,05,39,13.30
2012,07,08,05,40,13.30
2012,07,08,05,41,13.30
2012,07,08,05,42,13.30
2012,07,08,05,43,13.30
2012,07,08,05,44,13.30
2012,07,08,05,45,13.30
2012,07,08,05,46,13.30
2012,07,08,05,47,13.30
2012,07,08,05,48,13.30
2012,07,08,05,49,13.30
2012,07,08,05,50,13.30
2012,07,08,05,51,13.40
2012,07,08,05,52,13.40
2012,07,08,05,53,13.40
2012,07,08,05,54,13.40
2012,07,08,05,55,13.40
2012,07,08,05,56,13.40
2012,07,08,05,57,13.40
2012,07,08,05,58,13.40
2012,07,08,05,59,13.40
2012,07,08,06,00,13.50
2012,07,08,06,01,13.50
2012,07,08,06,02,13.50
2012,07,08,06,03,13.50
2012,07,08,06,04,13.50
2012,07,08,06,05,13.50
2012,07,08,06,06,13.60
2012,07,08,06,07,13.60
2012,07,08,06,08,13.60
2012,07,08,06,09,13.60
2012,07,08,06,10,13.60
2012,07,08,06,11,13.60
2012,07,08,06,12,13.60
2012,07,08,06,13,13.70
2012,07,08,06,14,13.70
2012,07,08,06,15,13.70
2012,07,08,06,16,13.70
2012,07,08,06,17,13.70
2012,07,08,06,18,13.70
2012,07,08,06,19,13.70
2012,07,08,06,20,13.80
2012,07,08,06,21,13.80
2012,07,08,06,22,13.80
2012,07,08,06,23,13.80
2012,07,08,06,24,13.80
2012,07,08,06,25,13.90
2012,07,08,06,26,13.90
2012,07,08,06,27,13.90
2012,07,08,06,28,14.00
2012,07,08,06,29,14.00
2012,07,08,06,30,14.10
2012,07,08,06,31,14.10
2012,07,08,06,32,14.10
2012,07,08,06,33,14.20
2012,07,08,06,34,14.20
2012,07,08,06,35,14.30
2012,07,08,06,36,14.30
2012,07,08,06,37,14.40
2012,07,08,06,38,14.40
2012,07,08,06,39,14.40
2012,07,08,06,40,14.50
2012,07,08,06,41,14.50
2012,07,08,06,42,14.60
2012,07,08,06,43,14.60
2012,07,08,06,44,14.70
2012,07,08,06,45,14.70
2012,07,08,06,46,14.80
2012,07,08,06,47,14.90
2012,07,08,06,48,15.00
2012,07,08,06,49,15.00
2012,07,08,06,50,15.00
2012,07,08,06,51,15.00
2012,07,08,06,52,15.10
2012,07,08,06,53,15.20
2012,07,08,06,54,15.30
2012,07,08,06,55,15.40
2012,07,08,06,56,15.50
2012,07,08,06,57,15.60
2012,07,08,06,58,15.70
2012,07,08,06,59,15.80
2012,07,08,07,00,15.90
2012,07,08,07,01,16.00
2012,07,08,07,02,16.10
2012,07,08,07,03,16.20
2012,07,08,07,04,16.30
2012,07,08,07,05,16.40
2012,07,08,07,06,16.40
2012,07,08,07,07,16.50
2012,07,08,07,08,16.60
2012,07,08,07,09,16.70
2012,07,08,07,10,16.80
2012,07,08,07,11,16.80
2012,07,08,07,12,16.90
2012,07,08,07,13,16.90
2012,07,08,07,14,17.00
2012,07,08,07,15,17.00
2012,07,08,07,16,17.10
2012,07,08,07,17,17.20
2012,07,08,07,18,17.20
2012,07,08,07,19,17.30
2012,07,08,07,20,17.30
2012,07,08,07,21,17.30
2012,07,08,07,22,17.40
2012,07,08,07,23,17.50
2012,07,08,07,24,17.50
2012,07,08,07,25,17.60
2012,07,08,07,26,17.60
2012,07,08,07,27,17.70
2012,07,08,07,28,17.70
2012,07,08,07,29,17.70
2012,07,08,07,30,17.80
2012,07,08,07,31,17.80
2012,07,08,07,32,17.80
2012,07,08,07,33,17.90
2012,07,08,07,34,17.90
2012,07,08,07,35,17.90
2012,07,08,07,36,18.00
2012,07,08,07,37,18.00
2012,07,08,07,38,18.10
2012,07,08,07,39,18.10
2012,07,08,07,40,18.10
2012,07,08,07,41,18.10
2012,07,08,07,42,18.20
2012,07,08,07,43,18.20
2012,07,08,07,44,18.20
2012,07,08,07,45,18.20
2012,07,08,07,46,18.20
2012,07,08,07,47,18.20
2012,07,08,07,48,18.20
2012,07,08,07,49,18.20
2012,07,08,07,50,18.30
2012,07,08,07,51,18.30
2012,07,08,07,52,18.30
2012,07,08,07,53,18.30
2012,07,08,07,54,18.30
2012,07,08,07,55,18.30
2012,07,08,07,56,18.30
2012,07,08,07,57,18.30
2012,07,08,07,58,18.30
2012,07,08,07,59,18.30
2012,07,08,08,00,18.30
2012,07,08,08,01,18.30
2012,07,08,08,02,18.30
2012,07,08,08,03,18.40
2012,07,08,08,04,18.40
2012,07,08,08,05,18.40
2012,07,08,08,06,18.50
2012,07,08,08,07,18.60
2012,07,08,08,08,18.60
2012,07,08,08,09,18.70
2012,07,08,08,10,18.70
2012,07,08,08,11,18.70
2012,07,08,08,12,18.70
2012,07,08,08,13,18.70
2012,07,08,08,14,18.60
2012,07,08,08,15,18.60
2012,07,08,08,16,18.60
2012,07,08,08,17,18.60
2012,07,08,08,18,18.60
2012,07,08,08,19,18.70
2012,07,08,08,20,18.70
2012,07,08,08,21,18.70
2012,07,08,08,22,18.70
2012,07,08,08,23,18.70
2012,07,08,08,24,18.70
2012,07,08,08,25,18.70
2012,07,08,08,26,18.80
2012,07,08,08,27,18.80
2012,07,08,08,28,18.80
2012,07,08,08,29,18.80
2012,07,08,08,30,18.80
2012,07,08,08,31,18.80
2012,07,08,08,32,18.80
2012,07,08,08,33,18.80
2012,07,08,08,34,18.80
2012,07,08,08,35,18.90
2012,07,08,08,36,18.90
2012,07,08,08,37,19.00
2012,07,08,08,38,19.00
2012,07,08,08,39,19.10
2012,07,08,08,40,19.10
2012,07,08,08,41,19.20
2012,07,08,08,42,19.30
2012,07,08,08,43,19.40
2012,07,08,08,44,19.40
2012,07,08,08,45,19.40
2012,07,08,08,46,19.50
2012,07,08,08,47,19.50
2012,07,08,08,48,19.50
2012,07,08,08,49,19.50
2012,07,08,08,50,19.40
2012,07,08,08,51,19.40
2012,07,08,08,52,19.40
2012,07,08,08,53,19.40
2012,07,08,08,54,19.40
2012,07,08,08,55,19.40
2012,07,08,08,56,19.40
2012,07,08,08,57,19.50
2012,07,08,08,58,19.50
2012,07,08,08,59,19.50
2012,07,08,09,00,19.60
2012,07,08,09,01,19.60
2012,07,08,09,02,19.60
2012,07,08,09,03,19.60
2012,07,08,09,04,19.60
2012,07,08,09,05,19.60
2012,07,08,09,06,19.60
2012,07,08,09,07,19.60
2012,07,08,09,08,19.60
2012,07,08,09,09,19.60
2012,07,08,09,10,19.50
2012,07,08,09,11,19.50
2012,07,08,09,12,19.50
2012,07,08,09,13,19.50
2012,07,08,09,14,19.40
2012,07,08,09,15,19.40
2012,07,08,09,16,19.40
2012,07,08,09,17,19.30
2012,07,08,09,18,19.30
2012,07,08,09,19,19.30
2012,07,08,09,20,19.30
2012,07,08,09,21,19.20
2012,07,08,09,22,19.20
2012,07,08,09,23,19.20
2012,07,08,09,24,19.20
2012,07,08,09,25,19.20
2012,07,08,09,26,19.20
2012,07,08,09,27,19.20
2012,07,08,09,28,19.20
2012,07,08,09,29,19.20
2012,07,08,09,30,19.20
2012,07,08,09,31,19.10
2012,07,08,09,32,19.00
2012,07,08,09,33,19.00
2012,07,08,09,34,18.90
2012,07,08,09,35,18.90
2012,07,08,09,36,18.90
2012,07,08,09,37,18.90
2012,07,08,09,38,19.00
2012,07,08,09,39,19.10
2012,07,08,09,40,19.10
2012,07,08,09,41,19.10
2012,07,08,09,42,19.10
2012,07,08,09,43,19.10
2012,07,08,09,44,19.10
2012,07,08,09,45,19.10
2012,07,08,09,46,19.20
2012,07,08,09,47,19.20
2012,07,08,09,48,19.20
2012,07,08,09,49,19.20
2012,07,08,09,50,19.20
2012,07,08,09,51,19.20
2012,07,08,09,52,19.20
2012,07,08,09,53,19.20
2012,07,08,09,54,19.10
2012,07,08,09,55,19.10
2012,07,08,09,56,19.10
2012,07,08,09,57,19.10
2012,07,08,09,58,19.10
2012,07,08,09,59,19.10
2012,07,08,10,00,19.10
2012,07,08,10,01,19.10
2012,07,08,10,02,19.10
2012,07,08,10,03,19.10
2012,07,08,10,04,19.10
2012,07,08,10,05,19.10
2012,07,08,10,06,19.10
2012,07,08,10,07,19.10
2012,07,08,10,08,19.10
2012,07,08,10,09,19.20
2012,07,08,10,10,19.30
2012,07,08,10,11,19.30
2012,07,08,10,12,19.30
2012,07,08,10,13,19.30
2012,07,08,10,14,19.30
2012,07,08,10,15,19.30
2012,07,08,10,16,19.30
2012,07,08,10,17,19.20
2012,07,08,10,18,19.20
2012,07,08,10,19,19.20
2012,07,08,10,20,19.10
2012,07,08,10,21,19.10
2012,07,08,10,22,19.10
2012,07,08,10,23,19.10
2012,07,08,10,24,19.10
2012,07,08,10,25,19.10
2012,07,08,10,26,19.10
2012,07,08,10,27,19.10
2012,07,08,10,28,19.10
2012,07,08,10,29,19.10
2012,07,08,10,30,19.20
2012,07,08,10,31,19.20
2012,07,08,10,32,19.30
2012,07,08,10,33,19.30
2012,07,08,10,34,19.40
2012,07,08,10,35,19.40
2012,07,08,10,36,19.50
2012,07,08,10,37,19.50
2012,07,08,10,38,19.60
2012,07,08,10,39,19.60
2012,07,08,10,40,19.60
2012,07,08,10,41,19.60
2012,07,08,10,42,19.60
2012,07,08,10,43,19.60
2012,07,08,10,44,19.70
2012,07,08,10,45,19.70
2012,07,08,10,46,19.70
2012,07,08,10,47,19.70
2012,07,08,10,48,19.80
2012,07,08,10,49,19.80
2012,07,08,10,50,19.80
2012,07,08,10,51,19.90
2012,07,08,10,52,19.90
2012,07,08,10,53,20.00
2012,07,08,10,54,20.00
2012,07,08,10,55,20.10
2012,07,08,10,56,20.00
2012,07,08,10,57,20.00
2012,07,08,10,58,20.00
2012,07,08,10,59,19.90
2012,07,08,11,00,19.90
2012,07,08,11,01,19.90
2012,07,08,11,02,19.90
2012,07,08,11,03,19.80
2012,07,08,11,04,19.90
2012,07,08,11,05,19.90
2012,07,08,11,06,19.90
2012,07,08,11,07,19.90
2012,07,08,11,08,19.90
2012,07,08,11,09,19.90
2012,07,08,11,10,19.90
2012,07,08,11,11,19.90
2012,07,08,11,12,19.90
2012,07,08,11,13,20.00
2012,07,08,11,14,20.00
2012,07,08,11,15,20.10
2012,07,08,11,16,20.10
2012,07,08,11,17,20.10
2012,07,08,11,18,20.20
2012,07,08,11,19,20.20
2012,07,08,11,20,20.30
2012,07,08,11,21,20.30
2012,07,08,11,22,20.40
2012,07,08,11,23,20.50
2012,07,08,11,24,20.50
2012,07,08,11,25,20.60
2012,07,08,11,26,20.70
2012,07,08,11,27,20.70
2012,07,08,11,28,20.80
2012,07,08,11,29,20.80
2012,07,08,11,30,20.80
2012,07,08,11,31,20.90
2012,07,08,11,32,20.90
2012,07,08,11,33,20.90
2012,07,08,11,34,20.90
2012,07,08,11,35,20.90
2012,07,08,11,36,20.80
2012,07,08,11,37,20.80
2012,07,08,11,38,20.70
2012,07,08,11,39,20.60
2012,07,08,11,40,20.50
2012,07,08,11,41,20.40
2012,07,08,11,42,20.30
2012,07,08,11,43,20.20
2012,07,08,11,44,20.20
2012,07,08,11,45,20.20
2012,07,08,11,46,20.10
2012,07,08,11,47,20.10
2012,07,08,11,48,20.10
2012,07,08,11,49,20.10
2012,07,08,11,50,20.10
2012,07,08,11,51,20.10
2012,07,08,11,52,20.10
2012,07,08,11,53,20.10
2012,07,08,11,54,20.10
2012,07,08,11,55,20.20
2012,07,08,11,56,20.20
2012,07,08,11,57,20.20
2012,07,08,11,58,20.20
2012,07,08,11,59,20.10
2012,07,08,12,00,20.10
2012,07,08,12,01,20.20
2012,07,08,12,02,20.20
2012,07,08,12,03,20.30
2012,07,08,12,04,20.30
2012,07,08,12,05,20.40
2012,07,08,12,06,20.40
2012,07,08,12,07,20.50
2012,07,08,12,08,20.50
2012,07,08,12,09,20.60
2012,07,08,12,10,20.60
2012,07,08,12,11,20.70
2012,07,08,12,12,20.70
2012,07,08,12,13,20.70
2012,07,08,12,14,20.70
2012,07,08,12,15,20.60
2012,07,08,12,16,20.60
2012,07,08,12,17,20.70
2012,07,08,12,18,20.60
2012,07,08,12,19,20.60
2012,07,08,12,20,20.70
2012,07,08,12,21,20.70
2012,07,08,12,22,20.70
2012,07,08,12,23,20.80
2012,07,08,12,24,20.80
2012,07,08,12,25,20.90
2012,07,08,12,26,21.00
2012,07,08,12,27,21.00
2012,07,08,12,28,21.10
2012,07,08,12,29,21.10
2012,07,08,12,30,21.10
2012,07,08,12,31,21.20
2012,07,08,12,32,21.20
2012,07,08,12,33,21.20
2012,07,08,12,34,21.20
2012,07,08,12,35,21.10
2012,07,08,12,36,21.10
2012,07,08,12,37,21.10
2012,07,08,12,38,21.10
2012,07,08,12,39,21.10
2012,07,08,12,40,21.10
2012,07,08,12,41,21.10
2012,07,08,12,42,21.20
2012,07,08,12,43,21.20
2012,07,08,12,44,21.20
2012,07,08,12,45,21.20
2012,07,08,12,46,21.20
2012,07,08,12,47,21.20
2012,07,08,12,48,21.30
2012,07,08,12,49,21.40
2012,07,08,12,50,21.50
2012,07,08,12,51,21.60
2012,07,08,12,52,21.70
2012,07,08,12,53,21.80
2012,07,08,12,54,21.80
2012,07,08,12,55,21.80
2012,07,08,12,56,21.80
2012,07,08,12,57,21.90
2012,07,08,12,58,21.90
2012,07,08,12,59,21.90
2012,07,08,13,00,22.00
2012,07,08,13,01,22.00
2012,07,08,13,02,22.10
2012,07,08,13,03,22.10
2012,07,08,13,04,22.10
2012,07,08,13,05,22.10
2012,07,08,13,06,22.10
2012,07,08,13,07,22.10
2012,07,08,13,08,22.10
2012,07,08,13,09,22.10
2012,07,08,13,10,22.10
2012,07,08,13,11,22.10
2012,07,08,13,12,22.10
2012,07,08,13,13,22.10
2012,07,08,13,14,22.10
2012,07,08,13,15,22.10
2012,07,08,13,16,22.10
2012,07,08,13,17,22.20
2012,07,08,13,18,22.30
2012,07,08,13,19,22.30
2012,07,08,13,20,22.30
2012,07,08,13,21,22.30
2012,07,08,13,22,22.30
2012,07,08,13,23,22.30
2012,07,08,13,24,22.20
2012,07,08,13,25,22.20
2012,07,08,13,26,22.20
2012,07,08,13,27,22.20
2012,07,08,13,28,22.20
2012,07,08,13,29,22.20
2012,07,08,13,30,22.30
2012,07,08,13,31,22.30
2012,07,08,13,32,22.30
2012,07,08,13,33,22.40
2012,07,08,13,34,22.40
2012,07,08,13,35,22.50
2012,07,08,13,36,22.60
2012,07,08,13,37,22.60
2012,07,08,13,38,22.70
2012,07,08,13,39,22.70
2012,07,08,13,40,22.70
2012,07,08,13,41,22.80
2012,07,08,13,42,22.80
2012,07,08,13,43,22.80
2012,07,08,13,44,22.80
2012,07,08,13,45,22.80
2012,07,08,13,46,22.80
2012,07,08,13,47,22.70
2012,07,08,13,48,22.70
2012,07,08,13,49,22.70
2012,07,08,13,50,22.70
2012,07,08,13,51,22.70
2012,07,08,13,52,22.70
2012,07,08,13,53,22.70
2012,07,08,13,54,22.70
2012,07,08,13,55,22.70
2012,07,08,13,56,22.80
2012,07,08,13,57,22.80
2012,07,08,13,58,22.80
2012,07,08,13,59,22.90
2012,07,08,14,00,22.90
2012,07,08,14,01,22.90
2012,07,08,14,02,22.90
2012,07,08,14,03,23.00
2012,07,08,14,04,23.00
2012,07,08,14,05,23.10
2012,07,08,14,06,23.20
2012,07,08,14,07,23.20
2012,07,08,14,08,23.30
2012,07,08,14,09,23.40
2012,07,08,14,10,23.50
2012,07,08,14,11,23.60
2012,07,08,14,12,23.60
2012,07,08,14,13,23.60
2012,07,08,14,14,23.70
2012,07,08,14,15,23.70
2012,07,08,14,16,23.70
2012,07,08,14,17,23.70
2012,07,08,14,18,23.70
2012,07,08,14,19,23.70
2012,07,08,14,20,23.80
2012,07,08,14,21,23.80
2012,07,08,14,22,23.90
2012,07,08,14,23,24.00
2012,07,08,14,24,24.00
2012,07,08,14,25,24.10
2012,07,08,14,26,24.10
2012,07,08,14,27,24.10
2012,07,08,14,28,24.10
2012,07,08,14,29,24.10
2012,07,08,14,30,24.10
2012,07,08,14,31,24.10
2012,07,08,14,32,24.10
2012,07,08,14,33,24.10
2012,07,08,14,34,24.10
2012,07,08,14,35,24.10
2012,07,08,14,36,24.10
2012,07,08,14,37,24.10
2012,07,08,14,38,24.20
2012,07,08,14,39,24.20
2012,07,08,14,40,24.30
2012,07,08,14,41,24.30
2012,07,08,14,42,24.30
2012,07,08,14,43,24.30
2012,07,08,14,44,24.30
2012,07,08,14,45,24.30
2012,07,08,14,46,24.30
2012,07,08,14,47,24.30
2012,07,08,14,48,24.20
2012,07,08,14,49,24.20
2012,07,08,14,50,24.20
2012,07,08,14,51,24.20
2012,07,08,14,52,24.20
2012,07,08,14,53,24.20
2012,07,08,14,54,24.20
2012,07,08,14,55,24.20
2012,07,08,14,56,24.20
2012,07,08,14,57,24.10
2012,07,08,14,58,24.20
2012,07,08,14,59,24.20
2012,07,08,15,00,24.20
2012,07,08,15,01,24.20
2012,07,08,15,02,24.30
2012,07,08,15,03,24.30
2012,07,08,15,04,24.30
2012,07,08,15,05,24.30
2012,07,08,15,06,24.30
2012,07,08,15,07,24.40
2012,07,08,15,08,24.40
2012,07,08,15,09,24.40
2012,07,08,15,10,24.40
2012,07,08,15,11,24.50
2012,07,08,15,12,24.50
2012,07,08,15,13,24.60
2012,07,08,15,14,24.60
2012,07,08,15,15,24.60
2012,07,08,15,16,24.60
2012,07,08,15,17,24.60
2012,07,08,15,18,24.60
2012,07,08,15,19,24.50
2012,07,08,15,20,24.50
2012,07,08,15,21,24.40
2012,07,08,15,22,24.40
2012,07,08,15,23,24.40
2012,07,08,15,24,24.40
2012,07,08,15,25,24.40
2012,07,08,15,26,24.40
2012,07,08,15,27,24.40
2012,07,08,15,28,24.40
2012,07,08,15,29,24.50
2012,07,08,15,30,24.50
2012,07,08,15,31,24.40
2012,07,08,15,32,24.40
2012,07,08,15,33,24.40
2012,07,08,15,34,24.40
2012,07,08,15,35,24.40
2012,07,08,15,36,24.40
2012,07,08,15,37,24.40
2012,07,08,15,38,24.50
2012,07,08,15,39,24.50
2012,07,08,15,40,24.60
2012,07,08,15,41,24.60
2012,07,08,15,42,24.60
2012,07,08,15,43,24.60
2012,07,08,15,44,24.60
2012,07,08,15,45,24.60
2012,07,08,15,46,24.60
2012,07,08,15,47,24.60
2012,07,08,15,48,24.60
2012,07,08,15,49,24.60
2012,07,08,15,50,24.60
2012,07,08,15,51,24.60
2012,07,08,15,52,24.60
2012,07,08,15,53,24.60
2012,07,08,15,54,24.60
2012,07,08,15,55,24.60
2012,07,08,15,56,24.60
2012,07,08,15,57,24.60
2012,07,08,15,58,24.70
2012,07,08,15,59,24.70
2012,07,08,16,00,24.70
2012,07,08,16,01,24.80
2012,07,08,16,02,24.80
2012,07,08,16,03,24.80
2012,07,08,16,04,24.90
2012,07,08,16,05,24.90
2012,07,08,16,06,24.90
2012,07,08,16,07,24.90
2012,07,08,16,08,25.00
2012,07,08,16,09,25.00
2012,07,08,16,10,25.10
2012,07,08,16,11,25.10
2012,07,08,16,12,25.10
2012,07,08,16,13,25.10
2012,07,08,16,14,25.10
2012,07,08,16,15,25.10
2012,07,08,16,16,25.10
2012,07,08,16,17,25.10
2012,07,08,16,18,25.10
2012,07,08,16,19,25.20
2012,07,08,16,20,25.20
2012,07,08,16,21,25.30
2012,07,08,16,22,25.30
2012,07,08,16,23,25.40
2012,07,08,16,24,25.40
2012,07,08,16,25,25.40
2012,07,08,16,26,25.40
2012,07,08,16,27,25.40
2012,07,08,16,28,25.40
2012,07,08,16,29,25.30
2012,07,08,16,30,25.30
2012,07,08,16,31,25.30
2012,07,08,16,32,25.30
2012,07,08,16,33,25.30
2012,07,08,16,34,25.30
2012,07,08,16,35,25.30
2012,07,08,16,36,25.40
2012,07,08,16,37,25.40
2012,07,08,16,38,25.30
2012,07,08,16,39,25.30
2012,07,08,16,40,25.30
2012,07,08,16,41,25.40
2012,07,08,16,42,25.40
2012,07,08,16,43,25.40
2012,07,08,16,44,25.50
2012,07,08,16,45,25.50
2012,07,08,16,46,25.60
2012,07,08,16,47,25.50
2012,07,08,16,48,25.50
2012,07,08,16,49,25.50
2012,07,08,16,50,25.40
2012,07,08,16,51,25.40
2012,07,08,16,52,25.30
2012,07,08,16,53,25.30
2012,07,08,16,54,25.30
2012,07,08,16,55,25.30
2012,07,08,16,56,25.30
2012,07,08,16,57,25.30
2012,07,08,16,58,25.30
2012,07,08,16,59,25.30
2012,07,08,17,00,25.20
2012,07,08,17,01,25.20
2012,07,08,17,02,25.20
2012,07,08,17,03,25.20
2012,07,08,17,04,25.20
2012,07,08,17,05,25.20
2012,07,08,17,06,25.20
2012,07,08,17,07,25.20
2012,07,08,17,08,25.20
2012,07,08,17,09,25.20
2012,07,08,17,10,25.10
2012,07,08,17,11,25.10
2012,07,08,17,12,25.10
2012,07,08,17,13,25.10
2012,07,08,17,14,25.10
2012,07,08,17,15,25.10
2012,07,08,17,16,25.20
2012,07,08,17,17,25.20
2012,07,08,17,18,25.20
2012,07,08,17,19,25.20